This is the latest recevied weather packets stored in our database for station/object K5NCO. If no packets are shown the sender has not sent any weather packets the latest 10 day(s).
| Time | Temp. | Humidity | Pressure | Rain* | Wind** | Luminosity | Snow |
|---|---|---|---|---|---|---|---|
| 1777848598 | 25.56° C | 38% | 1018.9 hPa | 0 mm | - | 253 W/m² | - |
| 1777848296 | 25° C | 39% | 1019 hPa | 0 mm | - | 309 W/m² | - |
| 1777847993 | 25° C | 40% | 1019.2 hPa | 0 mm | - | 336 W/m² | - |
| 1777847691 | 25° C | 40% | 1019.3 hPa | 0 mm | - | 328 W/m² | - |
| 1777847386 | 25.56° C | 38% | 1019.3 hPa | 0 mm | - | 347 W/m² | - |
| 1777847085 | 25.56° C | 38% | 1019.3 hPa | 0 mm | - | 373 W/m² | - |
| 1777846783 | 25.56° C | 39% | 1019.3 hPa | 0 mm | - | 386 W/m² | - |
| 1777846481 | 25.56° C | 39% | 1019.5 hPa | 0 mm | - | 376 W/m² | - |
| 1777846177 | 25° C | 38% | 1019.6 hPa | 0 mm | - | 398 W/m² | - |
| 1777845874 | 25.56° C | 39% | 1019.5 hPa | 0 mm | - | 421 W/m² | - |
| 1777845571 | 25° C | 37% | 1019.6 hPa | 0 mm | - | 396 W/m² | - |
| 1777845268 | 25.56° C | 38% | 1019.8 hPa | 0 mm | - | 461 W/m² | - |
| 1777844966 | 25° C | 36% | 1019.6 hPa | 0 mm | - | 478 W/m² | - |
| 1777844663 | 25° C | 38% | 1019.8 hPa | 0 mm | - | 420 W/m² | - |
| 1777844360 | 25.56° C | 38% | 1020 hPa | 0 mm | - | 470 W/m² | - |
| 1777844058 | 25.56° C | 38% | 1020.1 hPa | 0 mm | - | 501 W/m² | - |
| 1777843754 | 25.56° C | 36% | 1020.3 hPa | 0 mm | - | 510 W/m² | - |
| 1777843452 | 25° C | 37% | 1020.3 hPa | 0 mm | - | 576 W/m² | - |
| 1777843150 | 25° C | 39% | 1020.1 hPa | 0 mm | - | 269 W/m² | - |
| 1777842846 | 25° C | 39% | 1020.3 hPa | 0 mm | - | 442 W/m² | - |
| 1777842541 | 25.56° C | 38% | 1020.6 hPa | 0 mm | - | 308 W/m² | - |
| 1777842239 | 25.56° C | 39% | 1020.7 hPa | 0 mm | - | 472 W/m² | - |
| 1777841933 | 25° C | 39% | 1020.8 hPa | 0 mm | - | 457 W/m² | - |
| 1777841630 | 25.56° C | 38% | 1020.8 hPa | 0 mm | - | 602 W/m² | - |
| 1777841327 | 25° C | 39% | 1020.9 hPa | 0 mm | - | 614 W/m² | - |
* Rain latest hour (hover to see other rain measurements)
** Current wind speed in m/s (hover to see current wind gust speed)